Погода в Пейдже

США     36°54′28″N   111°27′30″W
темп.,
°C
ветер,
м/с
пор.,
м/с
влажн.,
%
обл.,
%
осадки,
мм/ч
давл.,
гПа
погр.,
м
19 апреля, пн
пн1900:00+11юз11130 0.0 101710
03:00+9зюз11140 0.0 101710
06:00+8юз11150 0.0 101710
09:00+12зюз11140 0.0 1017226
12:00+18з25120 0.0 10141656
15:00+23з91094 0.0 10092642
18:00+23з1216108 0.0 10063742
21:00+19з8131248 0.0 1007291
20 апреля, вт
вт2000:00+15зюз45210 0.0 101155
03:00+12сз33250 0.0 101222
06:00+9с45340 0.0 101677
09:00+9всв4430100 0.0 1018783
12:00+12в43195 0.0 10171121
15:00+16всв3216100 0.0 10121213
18:00+17всв3315100 0.0 1008968
21:00+14св221793 0.0 100923
21 апреля, ср
ср2100:00+12св221982 0.0 100910
03:00+9ссв112236 0.0 100810
06:00+8с2224100 0.0 100810
09:00+12св1219100 0.0 1009295
12:00+16св2215100 0.0 1007770
15:00+20св261097 0.0 10022255
18:00+21з1111967 0.0 9993621
21:00+17зюз7121667 0.0 1001225
22 апреля, чт
чт2200:00+13зсз222779 0.0 100413
03:00+11зюз11375 0.0 100510
06:00+9юз114659 0.1 100610
09:00+13юз113381 0.0 1008331
12:00+19зсз582377 0.0 10062913
15:00+22з881576 0.0 10033877
18:00+19сз1112234 0.0 10031407
21:00+17зсз342569 0.1 100557
23 апреля, пт
пт2300:00+13з22240 0.1 100711
03:00+11зсз11295 0.0 100710
06:00+10зюз22310 0.0 100810
09:00+14зюз12240 0.0 1009329
12:00+21з1010143 0.0 10063516
15:00+24з111310100 0.0 10044258
18:00+24з12141165 0.0 10034338
21:00+20з6101792 0.0 1006213